Location: NJAA Observatory
(40.6819°N, 74.8979°W)
Time: 07:30:17
(UTC-05:00)

Transit 2A Rocket - Visible Passes

Search period start: 01 March 2015 00:00
Search period end: 11 March 2015 01:00
Orbit: 585 x 922 km, 66.7° (Epoch: 28 February)

Date Brightness Start Highest point End Pass type
(mag) Time Alt. Az. Time Alt. Az. Time Alt. Az.
01 Mar 5.5 19:07:07 10° NNW 19:13:13 72° WSW 19:18:55 10° SSE visible
02 Mar 5.3 18:25:05 10° NNW 18:31:12 73° ENE 18:36:58 10° SE visible
02 Mar 7.8 20:09:21 10° WNW 20:13:17 18° WSW 20:16:50 10° SW visible
03 Mar 7.1 19:26:22 10° NW 19:31:34 30° WSW 19:36:22 10° SSW visible
04 Mar 6.3 18:43:55 10° NW 18:49:45 49° WSW 18:55:12 10° S visible
05 Mar 8.3 19:47:43 10° W 19:49:38 11° WSW 19:51:08 10° WSW visible
06 Mar 7.9 19:03:38 10° WNW 19:07:58 20° WSW 19:11:55 10° SSW visible
07 Mar 7.2 18:20:50 10° NW 18:26:14 34° WSW 18:31:13 10° S visible
09 Mar 8.4 19:41:29 10° WNW 19:44:20 13° WSW 19:46:45 10° SW visible
